User: anonymous   Login
Location: Unspecified
(0.0000°N, 0.0000°E)
Time: 00:50:07
(UTC+00:00)
Language:

STARLINK-31028 - Orbit

View from above orbital plane
View from above orbital plane
View from above satellite
View from above satellite

Ground track
Ground track

The orbit is defined by the following mean orbital elements,

1 58516U          26145.37698672 +.00000000 +00000-0 -20916-4 0 00007
2 58516  43.0040  29.9968 0001042 280.6567  79.4168 15.27578585    00
Epoch (UTC): 25 May 2026 09:02:51
Eccentricity: 0.0001042
inclination: 43.0040°
perigee height: 482 km
apogee height: 484 km
right ascension of ascending node: 29.9968°
argument of perigee: 280.6567°
revolutions per day: 15.27578585
mean anomaly at epoch: 79.4168°

The dashed part of the orbit path shows where the satellite is in the earth's shadow,  

DLR